Location: Krakow
(50.0212°N, 19.9423°E)
Time: 13:37:25
(UTC+02:00)

NOAA 18 - Pass Details

Date: 06 May 2025
Orbit: 837 x 857 km, 98.8° (Epoch: 14 May)

Event Time Altitude Azimuth Distance (km) Brightness Sun altitude
Exits shadow 22:49:31 33° 172° (S) 1,408 5.8 -19.1°
Maximum altitude 22:52:08 80° 255° (WSW) 876 5.2 -19.3°
Drops below altitude 10° 22:57:43 10° 343° (NNW) 2,501 8.9 -19.7°
Sets 23:00:06 0° 345° (NNW) 3,440 9.9 -19.9°
